KB7YYZ Weather Reports


time (UTC)temp
F
wind
direction
speed
knots
gust
knots
rain 1hr
in
rain 24hr
in
rain mn
in
humidity
%
barometer
mb
20260505102018 62 149 0.9 1.7 0.03 0.28 0.14 55 1006.3
20260505101021 62 199 1.7 1.7 0.00 0.25 0.11 55 1006.7
20260505100039 62 195 1.7 1.7 0.00 0.25 0.11 55 1006.5
20260505095031 62 176 1.7 2.6 0.00 0.25 0.11 55 1006.5
20260505094027 63 193 1.7 2.6 0.00 0.25 0.11 55 1006.4
20260505093045 63 208 1.7 1.7 0.00 0.25 0.11 56 1006.6
20260505092024 63 185 1.7 1.7 0.03 0.25 0.11 56 1006.7
20260505091021 63 164 1.7 1.7 0.03 0.25 0.11 56 1006.8
20260505090019 63 197 1.7 1.7 0.03 0.25 0.11 56 1006.7
20260505085021 63 118 1.7 1.7 0.06 0.25 0.11 56 1007.0
20260505084027 63 143 1.7 1.7 0.06 0.25 0.11 56 1007.3
20260505083034 63 160 0.9 0.9 0.08 0.25 0.11 56 1007.9
20260505082040 63 71 0.9 0.9 0.06 0.22 0.08 56 1008.2
20260505081030 64 167 0.9 0.9 0.06 0.22 0.08 56 1008.5
20260505080051 64 134 0.9 0.9 0.08 0.22 0.08 57 1008.8
20260505075025 64 187 0.0 0.9 0.06 0.19 0.06 57 1008.7
20260505074030 64 111 0.9 0.9 0.06 0.19 0.06 57 1009.0
20260505073036 65 186 0.0 0.9 0.06 0.17 0.03 57 1009.1
20260505072027 65 257 0.0 0.9 0.06 0.17 0.03 57 1009.0
20260505071043 65 0.0 0.0 0.06 0.17 0.03 57 1008.9
20260505070021 65 0.0 0.0 0.03 0.14 0.00 57 1008.8
20260505065057 65 0.0 0.0 0.03 0.14 0.14 57 1008.9
20260505064026 65 0.0 0.0 0.06 0.14 0.14 57 1008.8
20260505063025 66 0.0 0.0 0.03 0.11 0.11 57 1008.9
20260505062030 66 177 0.0 0.0 0.03 0.11 0.11 57 1008.9
20260505061029 65 195 0.0 0.0 0.03 0.11 0.11 57 1009.0
20260505060026 65 186 0.0 0.9 0.03 0.11 0.11 57 1008.8
20260505055026 65 189 0.0 0.9 0.03 0.11 0.11 58
20260505054022 66 163 0.0 0.9 0.03 0.08 0.08 58 1008.7
20260505053100 66 77 0.0 0.9 0.03 0.08 0.08 58
20260505052111 66 0.0 0.0 0.03 0.08 0.08 58
20260505051021 66 0.0 0.0 0.03 0.08 0.08 58 1008.5
20260505041026 68 298 0.0 0.9 0.03 0.06 0.06 54 1009.0
20260505040031 68 247 1.7 1.7 0.00 0.03 0.03 52 1008.9
20260505035030 69 245 1.7 1.7 0.00 0.03 0.03 51 1008.7
20260505034029 68 255 1.7 1.7 0.00 0.03 0.03 50 1008.1
20260505033021 68 168 1.7 1.7 0.00 0.03 0.03 50 1007.5
20260505032023 67 162 1.7 2.6 0.00 0.03 0.03 49 1007.1
20260505031029 67 62 1.7 2.6 0.00 0.03 0.03 48 1007.1
20260505030027 67 206 1.7 1.7 0.03 0.03 0.03 50 1007.8
20260505025031 68 207 1.7 1.7 0.03 0.03 0.03 49 1007.7
20260505024049 69 142 0.9 1.7 0.03 0.03 0.03 48 1007.8
20260505023040 70 45 0.0 0.9 0.03 0.03 0.03 49 1008.2
20260505022026 70 15 0.0 0.0 0.03 0.03 0.03 48 1008.3
20260505021023 72 45 0.0 0.0 0.03 0.03 0.03 49 1008.4
20260505020024 72 23 0.0 0.0 0.00 0.00 0.00 48 1008.5
20260505015021 72 47 0.0 0.0 0.00 0.00 0.00 46 1008.3
20260505014132 73 47 0.9 0.9 0.00 0.00 0.00 42 1008.5
20260505013042 73 242 0.9 0.9 0.00 0.00 0.00 37 1008.3
20260505012020 73 181 0.9 0.9 0.00 0.00 0.00 37 1008.0
20260505011036 74 228 0.9 0.9 0.00 0.00 0.00 35 1007.7
20260505010040 74 233 1.7 2.6 0.00 0.00 0.00 33 1007.6
20260505005026 75 229 2.6 2.6 0.00 0.00 0.00 33 1007.9
20260505004019 76 246 1.7 2.6 0.00 0.00 0.00 32 1007.8
20260505003025 76 246 3.5 3.5 0.00 0.00 0.00 31 1007.9
20260505002032 77 231 3.5 3.5 0.00 0.00 0.00 31 1007.6
20260505001038 78 224 1.7 2.6 0.00 0.00 0.00 30 1007.4
20260505000023 78 220 0.9 1.7 0.00 0.00 0.00 30 1007.3
20260504235039 78 183 0.0 0.9 0.00 0.00 0.00 30 1006.9
20260504234022 79 202 0.0 0.9 0.00 0.00 0.00 31 1006.9
20260504233024 79 34 0.9 0.9 0.00 0.00 0.00 32 1007.4
20260504232054 80 268 0.9 1.7 0.00 0.00 0.00 29 1007.7
20260504231020 82 258 3.5 3.5 0.00 0.00 0.00 25 1007.7
20260504230029 82 241 2.6 2.6 0.00 0.00 0.00 20 1007.3
20260504225039 83 291 2.6 2.6 0.00 0.00 0.00 19 1006.9
20260504224026 83 276 2.6 2.6 0.00 0.00 0.00 19 1006.9
20260504223022 83 233 3.5 3.5 0.00 0.00 0.00 19 1006.9
20260504222021 83 236 3.5 139.9 0.00 0.00 0.00 18 1007.0
20260504221032 84 270 2.6 140.8 0.00 0.00 0.00 19 1007.0
20260504220053 85 282 2.6 3.5 0.00 0.00 0.00 17 1007.3
20260504215022 85 290 2.6 2.6 0.00 0.00 0.00 17 1007.0
20260504214029 85 290 2.6 2.6 0.00 0.00 0.00 17 1006.9
20260504213034 85 322 2.6 2.6 0.00 0.00 0.00 18 1006.8
20260504212040 85 339 1.7 1.7 0.00 0.00 0.00 19 1006.8
20260504211109 85 284 1.7 1.7 0.00 0.00 0.00 19 1006.8
20260504210027 85 300 1.7 1.7 0.00 0.00 0.00 20 1007.0
20260504205026 85 271 1.7 1.7 0.00 0.00 0.00 19 1006.9
20260504204031 85 255 0.9 0.9 0.00 0.00 0.00 17 1006.7
20260504203046 85 277 1.7 2.6 0.00 0.00 0.00 17 1006.8
20260504202041 84 229 2.6 2.6 0.00 0.00 0.00 17 1006.9
20260504201037 84 222 2.6 2.6 0.00 0.00 0.00 17 1006.8
20260504200053 84 238 2.6 2.6 0.00 0.00 0.00 17 1007.0
20260504195033 84 237 4.3 4.3 0.00 0.00 0.00 17 1006.8
20260504194022 84 232 3.5 140.8 0.00 0.00 0.00 19 1006.8
20260504193029 83 234 1.7 2.6 0.00 0.00 0.00 19 1006.6
20260504192028 83 244 2.6 2.6 0.00 0.00 0.00 19 1006.7
20260504191019 83 232 1.7 2.6 0.00 0.00 0.00 19 1006.7
20260504190026 83 211 2.6 2.6 0.00 0.00 0.00 20 1006.6
20260504185042 83 228 3.5 3.5 0.00 0.00 0.00 20 1007.0
20260504184019 82 217 2.6 2.6 0.00 0.00 0.00 21 1007.1
20260504183044 82 231 1.7 1.7 0.00 0.00 0.00 23 1007.4
20260504182024 81 176 1.7 1.7 0.00 0.00 0.00 23 1007.4
20260504181023 81 117 1.7 1.7 0.00 0.00 0.00 23 1007.4
20260504180031 81 177 1.7 1.7 0.00 0.00 0.00 23 1007.4
20260504175030 81 45 0.9 1.7 0.00 0.00 0.00 24 1007.4
20260504174042 80 205 1.7 1.7 0.00 0.00 0.00 24 1007.6
20260504173042 80 17 0.9 1.7 0.00 0.00 0.00 24 1007.5
20260504172020 80 222 1.7 1.7 0.00 0.00 0.00 26
20260504171026 80 183 1.7 1.7 0.00 0.00 0.00 26 1007.7
20260504151021 76 223 1.7 1.7 0.00 0.00 0.00 31 1007.6
20260504141055 74 163 1.7 1.7 0.00 0.00 0.00 31 1007.4